Location: Davayat
(45.9471°N, 3.1105°E)
Time: 13:17:59
(UTC+00:00)

NOSS 3-2 (A) - Pass Details

Date: 01 December 2020
Orbit: 789 x 1419 km, 63.4° (Epoch: 22 January)

Event Time Altitude Azimuth Distance (km) Brightness Sun altitude
Rises 18:32:19 0° 217° (SW) 3,334 6.9 -25.0°
Reaches altitude 10° 18:34:38 10° 218° (SW) 2,448 6.1 -25.4°
Maximum altitude 18:40:16 88° 310° (NW) 918 3.2 -26.4°
Enters shadow 18:41:26 61° 35° (NE) 1,050 3.4 -26.6°
